Dewpoint
15 14 15 13 12 14 18 17 15 6 2 2 8 10 -2 -3 -7 -5 -5 -7 -3 -3 1 3 1 0 2 0 8 19 23 23 20 23 28 28 32 37 44 45 47 49 48 56 62 62 61 61 62 63 63 63 64 64 63 63 64 65 65 66 65 66 66 65 65 66 65 64 63 64 62 62 62 61 64 63 62 61 62 61 60 62 64 65 65 65
16 16 14 15 15 17 19 20 22 17 14 6 13 14 2 -3 -2 -4 -7 -5 0 18 2 5 -2 1 6 6 3 18 21 20 22 23 28 25 27 36 45 46 46 50 49 60 60 60 60 61 62 61 62 63 62 63 63 63 64 65 65 65 66 67 66 65 66 66 66 66 65 64 61 61 59 60 60 59 60 60 61 62 63 63 61 63 64 64
16 16 17 16 19 21 23 24 19 19 18 17 15 12 8 2 -3 -1 -2 -0 1 9 8 1 3 4 7 7 6 11 24 25 25 26 27 27 28 36 42 42 45 47 55 57 58 59 61 62 61 61 62 63 63 63 63 63 63 64 64 64 65 66 66 66 65 67 66 65 66 67 63 63 59 62 61 57 59 60 59 63 61 63 64 61 60 62
18 14 18 15 21 21 20 24 24 22 23 20 18 14 11 7 -2 -3 19 1 11 17 14 11 9 12 13 14 14 16 12 26 24 23 24 26 35 40 40 40 42 54 58 57 57 59 60 62 60 60 60 61 62 62 62 63 63 63 63 64 65 65 65 65 65 65 65 65 65 67 64 65 62 58 59 61 60 59 59 59 60 64 65 63 59 55
15 17 15 16 17 19 21 24 25 22 18 22 21 15 10 7 3 -1 15 13 21 19 25 14 17 15 14 12 12 17 17 24 27 27 26 29 37 43 43 47 56 57 56 56 57 59 60 60 59 59 60 61 61 61 62 62 62 63 63 64 65 65 65 65 64 65 66 66 67 64 62 62 61 61 59 57 58 59 57 59 62 63 61 57 56 56
15 20 23 9 11 15 22 21 22 24 20 15 20 18 15 12 10 2 18 9 18 15 18 14 16 14 12 11 12 7 23 28 29 30 27 27 38 37 41 54 55 57 56 57 57 58 59 60 60 60 61 60 61 61 61 62 62 63 63 64 65 64 64 65 65 65 65 66 64 62 61 60 61 60 61 59 56 57 59 56 61 59 59 61 62 57
13 21 19 14 17 20 18 18 19 20 15 12 11 11 12 9 13 11 13 16 12 14 23 23 15 15 15 14 14 17 26 29 30 32 30 29 33 38 40 57 55 55 57 57 58 58 59 60 60 60 60 60 61 62 62 62 62 63 63 64 64 64 64 65 65 65 65 66 63 63 61 61 60 61 61 61 62 59 59 62 60 60 62 58 60 59
13 12 16 17 21 19 18 15 15 13 11 7 15 9 6 5 9 14 14 12 15 21 25 21 16 13 11 12 9 13 28 30 31 32 35 32 36 40 52 56 55 55 57 58 57 58 59 60 60 60 60 60 61 62 62 62 63 63 63 64 64 65 65 65 65 64 66 65 63 63 62 62 62 61 60 61 60 61 60 60 60 61 61 58 58 59
23 20 21 19 19 15 14 13 14 12 11 10 12 7 3 3 11 11 13 14 18 20 16 16 17 14 10 14 15 18 23 29 31 33 35 35 43 55 55 54 55 56 56 56 56 58 58 60 60 61 60 60 61 62 63 63 63 64 64 65 65 65 64 64 64 65 65 65 64 64 64 64 61 59 59 58 58 59 59 60 61 61 58 59 57 54
11 11 12 15 13 13 11 9 8 10 12 13 8 9 14 5 4 11 16 14 19 19 17 20 21 16 11 13 15 17 21 28 29 30 34 33 50 55 54 55 54 56 56 55 56 57 59 60 61 62 62 61 62 63 63 64 64 64 64 64 63 64 63 64 64 64 62 60 61 62 64 63 59 59 58 59 59 59 62 59 58 59 59 58 59 58
16 20 16 9 11 10 9 10 7 6 10 12 8 9 14 14 10 12 14 12 19 15 15 16 20 20 15 17 19 21 24 27 26 28 33 35 43 52 52 51 52 55 56 55 55 56 60 60 60 62 61 62 63 62 62 63 63 63 63 63 63 64 64 64 63 62 62 61 61 60 61 62 59 59 60 58 58 59 59 57 58 59 59 58 58 59
8 12 12 11 12 9 7 12 14 12 9 7 16 15 16 17 14 12 15 14 15 12 14 14 17 20 19 19 19 27 26 25 38 41 35 32 49 49 52 51 53 54 55 56 56 55 59 60 60 61 61 62 62 62 62 62 62 63 63 62 62 63 63 63 62 61 60 61 60 60 61 60 60 60 58 57 57 57 56 58 58 58 58 57 58 59
10 7 11 13 17 8 7 11 15 13 11 8 16 16 16 15 20 12 13 14 12 13 15 13 15 18 17 27 32 34 31 27 37 35 42 42 45 50 49 50 53 54 55 56 56 56 59 58 59 60 61 62 62 61 62 62 62 63 63 62 62 62 62 62 61 61 60 61 60 60 61 61 61 60 58 58 57 57 57 58 56 57 56 56 56 57
9 6 7 12 12 13 10 13 14 14 13 9 9 16 17 14 13 14 11 13 13 13 13 17 18 19 24 28 33 32 37 37 35 39 41 40 44 50 49 51 52 54 56 56 54 56 58 58 58 59 60 61 62 62 61 62 62 63 63 63 62 61 61 61 61 61 61 61 61 61 61 60 60 60 60 59 57 58 58 57 57 56 56 56 56 56
10 7 7 11 12 10 12 13 12 14 11 8 9 9 21 16 15 14 10 13 12 11 17 10 19 17 24 38 35 36 38 41 40 41 42 41 42 47 50 50 51 55 56 55 55 55 58 57 58 59 61 60 61 62 62 62 62 63 63 63 62 63 62 61 61 62 62 62 62 63 61 60 61 59 60 59 59 59 57 57 57 56 57 55 54 57
6 9 11 10 10 8 8 10 11 9 8 7 7 9 12 24 22 15 23 20 19 15 15 24 20 25 32 36 37 38 37 40 40 44 45 45 46 50 52 54 55 56 57 56 56 56 57 59 60 60 61 61 61 61 62 62 62 62 62 63 63 62 61 61 61 61 62 61 62 61 60 60 61 57 59 58 58 60 59 57 58 57 57 56 57 56
8 10 10 9 9 8 9 10 8 9 15 19 5 8 9 16 20 20 26 24 24 18 14 27 29 32 33 35 35 35 35 38 42 45 44 46 49 52 53 54 55 55 55 54 55 56 57 58 60 59 60 61 61 61 61 62 62 62 62 61 60 62 62 61 61 62 61 62 63 60 60 60 60 59 59 58 60 59 59 59 58 58 57 58 57 57
14 16 14 11 8 8 10 10 7 8 11 19 16 8 7 11 22 26 16 22 18 14 16 18 24 24 21 25 33 34 36 42 44 44 48 47 48 51 52 51 52 54 55 56 57 58 58 58 59 60 59 60 60 61 61 61 61 61 63 61 60 60 61 62 62 62 62 62 62 61 60 60 61 61 60 60 59 59 59 59 58 58 57 56 56 57
14 14 17 19 12 9 9 8 7 7 9 10 15 16 15 25 19 17 19 19 19 18 15 13 14 19 21 25 29 35 37 43 45 47 47 47 48 49 51 52 53 54 55 56 56 56 57 57 58 59 59 59 61 61 61 60 61 61 62 60 60 61 59 60 60 61 62 63 62 62 61 61 61 62 61 60 59 59 57 57 59 57 57 57 57 57
26 18 17 14 12 10 9 10 15 11 7 8 13 15 15 19 20 21 20 15 18 17 17 17 8 10 32 32 29 40 41 43 45 46 46 46 47 49 50 51 52 53 54 55 55 56 57 57 57 58 58 58 59 60 60 60 61 60 61 60 60 61 61 60 60 59 59 62 62 61 62 62 60 59 59 60 59 58 56 57 58 58 58 58 57 59
22 29 19 16 14 12 20 14 12 11 16 11 11 14 17 26 20 19 31 16 15 16 13 13 10 25 35 38 31 31 42 42 44 45 44 46 48 49 49 51 52 52 53 54 53 52 53 55 56 56 57 57 58 59 60 59 60 60 60 60 61 60 60 61 59 58 60 60 60 61 61 61 61 61 58 58 58 58 58 58 57 58 58 56 58 59
20 24 21 22 16 16 13 14 12 10 10 13 13 12 12 20 20 16 16 16 17 15 17 15 15 29 38 38 37 36 41 42 42 44 44 45 47 48 49 50 51 50 50 49 51 51 51 54 54 55 56 56 55 56 57 57 58 59 59 59 60 60 59 60 61 59 59 58 59 60 61 61 61 61 58 57 60 57 56 56 56 58 57 57 58 57
32 29 23 19 19 23 19 17 19 16 12 10 10 12 8 15 16 21 17 22 23 14 15 20 21 27 38 40 40 40 40 40 42 43 43 44 46 45 47 45 47 47 47 49 51 50 49 50 51 53 55 55 54 54 54 55 56 58 58 59 59 59 59 59 59 59 59 58 61 62 61 61 62 62 62 57 57 56 53 55 56 57 57 56 59 58
32 23 23 21 19 23 22 22 20 21 17 12 11 15 17 17 17 19 22 27 23 22 18 19 19 30 38 39 43 42 41 42 42 44 45 46 46 46 46 47 47 47 49 49 50 51 50 48 48 50 52 53 54 55 54 54 54 55 57 57 57 59 58 59 59 59 59 59 59 60 60 60 62 63 62 63 56 57 55 56 56 57 58 54 57 55
24 26 22 20 24 22 25 25 21 23 24 24 24 25 17 14 21 27 27 30 20 21 17 19 20 25 42 41 39 43 46 46 46 45 50 47 48 46 47 47 48 49 48 47 48 49 49 47 47 46 49 51 52 53 55 55 55 55 56 56 57 57 57 57 57 58 58 58 60 61 62 61 60 59 60 60 60 58 55 55 55 55 55 57 57 55
23 28 24 18 19 20 22 21 20 25 26 27 24 23 26 16 28 34 20 25 21 24 20 24 27 35 37 40 45 45 45 45 47 49 48 49 48 46 45 47 48 48 48 48 48 48 48 46 45 45 47 46 50 53 55 56 55 56 56 57 58 57 58 57 57 57 59 58 59 60 59 60 59 59 59 60 58 59 58 56 56 55 56 55 54 56
28 34 28 25 22 20 24 32 31 26 24 25 26 28 28 31 29 24 30 27 23 29 28 32 32 36 35 38 44 45 46 45 48 47 48 48 49 49 49 49 49 51 52 52 53 52 50 50 49 45 46 45 49 51 54 54 54 55 57 58 57 57 57 58 59 59 59 59 59 58 57 58 59 59 59 58 58 59 61 60 57 56 55 54 54 55
29 26 29 30 27 22 20 25 28 26 26 25 27 29 29 31 37 31 23 22 27 29 24 35 38 37 40 41 43 44 45 48 48 48 49 49 50 51 51 51 51 50 51 51 52 52 52 51 50 52 51 50 51 52 54 55 55 56 57 57 59 59 60 60 60 59 58 60 60 59 60 60 60 60 59 59 59 59 60 60 60 59 59 59 60 59
34 25 29 30 24 24 23 23 25 26 25 25 27 29 31 30 34 36 36 36 30 25 21 38 38 38 40 41 43 44 45 45 47 49 50 50 51 50 50 50 50 48 49 49 51 52 52 51 53 54 53 52 56 55 54 53 55 57 57 57 58 58 58 58 58 59 57 57 58 59 59 59 58 59 58 58 58 58 58 59 60 58 59 59 59 59
30 26 32 29 27 23 22 22 25 25 26 25 28 28 30 31 33 35 37 39 39 39 39 39 40 40 41 41 43 45 47 47 48 49 50 49 49 49 49 50 48 47 47 47 48 49 50 49 51 52 52 52 48 49 50 51 52 54 54 53 54 54 57 58 58 58 57 59 59 58 58 59 58 58 58 57 57 58 60 59 59 59 58 58 58 58
30 32 37 36 27 27 25 24 23 23 26 27 28 28 30 31 30 33 34 37 41 39 39 39 38 38 40 42 43 43 42 41 41 40 38 39 42 43 47 49 49 47 48 48 46 46 48 49 48 47 50 51 50 49 48 50 49 49 51 51 52 53 53 56 58 58 57 57 58 58 58 58 58 58 58 58 59 57 59 58 58 58 57 57 57 58
39 30 33 32 27 25 26 26 24 26 27 28 29 30 30 31 30 32 31 32 33 35 37 35 35 36 40 41 36 36 37 38 37 37 36 36 37 39 42 42 43 47 49 51 48 47 43 44 45 47 48 50 50 49 50 51 50 51 51 52 52 54 55 57 56 56 56 58 58 58 57 59 56 57 59 59 57 57 57 59 59 57 57 58 57 58
41 34 27 28 25 22 24 26 26 29 30 27 28 29 33 30 30 32 33 33 33 35 32 30 35 39 39 38 36 36 37 37 37 37 36 34 35 35 35 35 37 37 39 39 40 40 41 40 40 41 43 44 46 46 48 47 48 49 47 52 52 52 54 55 56 55 56 56 55 55 56 55 56 56 56 56 57 57 57 57 57 57 57 57 59 58
39 33 29 33 24 21 29 31 31 28 23 23 35 36 34 32 32 33 33 33 33 34 32 35 41 40 36 35 34 34 36 37 37 36 37 36 37 36 37 37 35 36 37 37 37 38 39 39 40 40 40 40 41 42 42 42 39 43 55 44 48 51 51 52 53 55 55 55 55 55 57 55 55 56 57 57 57 57 56 56 57 58 57 58 58 58
32 31 30 33 29 29 34 32 27 24 21 34 35 33 35 34 33 34 33 32 32 33 34 33 32 32 32 32 33 34 36 37 36 38 39 40 39 38 38 37 35 36 37 37 38 38 38 37 39 40 39 39 40 41 41 40 41 40 37 39 39 42 48 44 47 51 52 54 55 55 55 56 57 56 55 56 56 57 56 56 57 58 58 57 58 57
28 28 28 27 28 32 30 28 21 22 32 34 34 35 35 34 34 35 34 34 33 33 34 32 31 31 30 29 30 31 31 31 31 36 37 39 40 40 39 38 37 38 38 38 38 39 39 39 39 40 39 40 39 39 39 40 41 40 41 39 40 39 38 39 39 39 44 44 43 44 46 49 50 51 54 56 56 55 55 56 57 57 58 58 57 58
31 32 28 24 30 24 25 26 25 32 31 31 32 32 33 32 32 30 29 34 34 34 34 33 31 30 30 30 29 29 29 28 29 33 34 35 37 40 41 40 40 40 41 40 41 41 41 42 42 43 42 41 41 40 42 38 40 42 41 39 37 37 39 41 39 38 41 40 40 42 44 44 45 50 48 49 51 53 55 56 56 56 56 56 56 56
30 30 31 27 27 28 26 25 28 26 24 29 31 32 33 35 35 35 33 32 35 35 36 35 34 32 31 30 29 30 30 28 27 27 28 30 33 37 39 41 42 41 42 43 43 43 44 44 46 46 44 42 42 42 41 37 39 38 40 40 39 37 39 39 39 39 40 41 41 42 41 42 42 48 46 50 46 48 51 53 54 53 53 53 52 52
25 30 35 29 27 27 24 23 21 23 27 32 30 31 30 30 34 36 30 27 34 33 34 34 35 36 35 35 32 32 31 28 27 28 28 28 28 29 28 29 31 33 37 40 42 41 39 42 44 46 46 44 44 42 40 40 39 42 39 38 40 40 38 39 38 38 38 40 40 40 41 43 43 44 45 44 47 51 51 50 51 49 51 50 48 49
26 25 24 24 25 26 27 25 23 27 28 31 33 33 34 28 32 31 24 25 31 31 32 33 32 32 33 33 32 31 30 28 27 28 29 28 29 29 29 28 27 26 26 29 35 36 38 40 42 43 43 42 43 45 43 43 39 41 41 37 41 41 41 40 39 38 39 39 40 41 41 45 47 48 45 44 48 51 51 52 53 53 52 51 46 43
22 23 24 23 24 25 26 25 25 29 31 32 31 31 31 35 33 24 21 28 30 29 28 30 30 30 30 31 29 28 28 28 27 28 30 29 28 28 28 28 27 26 26 26 26 31 27 28 30 27 30 34 40 44 45 45 43 43 40 39 42 45 46 44 39 38 38 39 39 39 39 41 43 47 52 51 51 49 51 50 50 51 51 50 50 51
20 23 21 22 20 20 23 25 26 25 30 31 31 28 30 32 25 23 29 32 31 29 29 30 30 30 30 29 28 28 28 29 29 28 28 29 29 30 28 28 28 28 27 29 32 29 27 25 28 28 28 28 30 31 33 34 35 36 36 37 39 38 40 41 37 36 34 37 37 39 39 41 44 46 47 47 49 51 50 50 52 49 51 49 48 49
24 22 24 23 25 22 21 22 24 22 30 33 33 28 30 27 28 29 29 29 29 29 29 29 29 29 29 29 29 30 29 29 29 30 30 29 28 27 28 27 27 26 26 27 27 25 24 23 25 27 28 27 30 31 32 34 34 34 36 35 37 37 38 41 38 35 34 35 37 38 39 41 43 44 45 46 47 47 47 49 52 51 51 50 49 48
28 21 20 26 26 20 23 23 24 29 29 31 30 27 28 29 30 30 29 28 29 29 29 29 29 30 30 30 30 29 30 30 30 30 29 29 28 26 26 27 27 26 26 25 26 26 24 24 26 27 27 28 29 30 31 33 31 33 34 36 36 37 37 36 37 36 35 36 37 37 36 35 37 41 44 45 48 45 46 47 49 47 49 48 48 47
27 27 27 25 30 27 25 27 30 30 30 30 31 30 31 31 33 31 31 30 29 29 31 29 29 31 30 30 30 30 29 30 28 28 27 27 28 27 25 25 27 27 27 27 28 28 26 25 27 26 27 28 28 29 30 30 31 32 33 35 35 33 33 34 34 36 36 36 35 36 34 36 37 39 40 41 40 41 43 45 48 47 49 49 46 44
26 28 29 27 27 29 30 31 31 30 30 30 30 30 30 30 30 30 30 29 29 29 29 28 28 29 29 30 28 27 27 27 28 26 26 27 27 27 29 27 27 28 28 28 28 28 28 27 28 28 29 28 29 30 33 32 31 32 33 33 34 33 33 34 35 35 35 34 35 35 32 33 32 30 34 39 39 40 39 40 42 43 43 44 43 43
23 22 26 27 27 25 26 31 30 29 29 29 28 29 29 29 29 30 30 29 29 29 29 29 29 29 28 28 28 29 28 27 27 26 26 27 27 27 27 28 28 28 28 28 28 29 29 28 28 28 30 30 31 31 31 31 31 32 33 33 33 33 33 33 34 35 34 34 33 34 35 35 33 32 31 32 32 34 37 37 39 41 42 42 40 40
19 20 21 24 24 22 27 28 29 29 28 28 28 28 28 29 28 28 28 29 29 30 30 30 30 30 30 27 26 26 28 28 27 25 22 24 25 25 25 25 26 26 27 27 28 28 27 28 28 29 30 31 32 32 32 32 30 30 32 31 32 31 32 33 34 34 33 33 34 33 32 33 33 34 33 33 32 32 34 38 40 38 39 39 41 44
17 21 21 25 26 27 27 26 26 26 25 26 27 27 28 28 28 28 29 29 29 27 25 21 26 26 28 28 28 26 26 28 27 26 22 21 22 24 24 25 25 26 26 25 27 28 28 28 28 30 30 30 30 30 30 30 30 30 32 31 30 30 30 32 32 32 31 32 32 33 33 34 33 33 32 32 32 32 32 31 33 35 39 41 45 45
16 17 20 24 23 22 24 25 25 22 24 24 25 26 27 27 26 25 26 25 26 25 25 25 26 27 28 28 26 26 24 26 27 26 23 22 23 24 24 25 25 25 25 26 28 28 28 28 28 29 27 28 29 28 28 29 29 29 27 26 27 28 29 30 30 30 30 30 31 31 32 33 31 31 32 32 31 31 31 30 30 35 38 41 38 38
20 21 22 17 16 21 23 23 24 26 26 25 25 25 25 25 25 25 25 25 25 23 23 24 22 22 23 27 27 27 26 26 25 24 23 22 23 23 25 25 23 24 26 27 27 26 27 27 29 29 28 29 29 29 29 30 30 30 30 30 29 28 29 28 28 28 28 29 28 29 31 31 30 31 32 32 32 33 30 30 44 34 34 35 36 36